Terminal Aerodrome Forecast
Issued by NWS

Home | Current Version | Previous Version | Text Only | Print | Product List | Glossary On
Versions: 1 2 3 4 5 6 7 8 9 10 11 12 13 14
000
FTUS45 KRIW 290526
TAFPNA
TAF
KPNA 290526Z 2906/3006 29005KT P6SM FEW120
      TEMPO 2911/2915 5SM FU
     FM291700 VRB05KT P6SM FEW120
     FM292000 30012G18KT P6SM FEW100
     FM300200 29007KT P6SM FEW120
      AMD LTD TO CLD VIS AND WIND=

USA.gov is the U.S. government's official web portal to all federal, state and local government web resources and services.